CW0069 Weather Reports


Display with metric or nautical units.
time (UTC)temp
F
wind
direction
speed
MPH
gust
MPH
rain 1hr
in
rain 24hr
in
rain mn
in
humidity
%
barometer
mb
20260506132905 55 342 8.0 13.0 0.00 0.00 0.00 60 1011.3
20260506132405 55 351 6.0 12.0 0.00 0.00 0.00 60 1011.2
20260506131904 55 339 9.0 15.0 0.00 0.00 0.00 60 1011.1
20260506131404 55 350 8.0 15.0 0.00 0.00 0.00 60 1011.2
20260506130404 55 330 9.0 16.0 0.00 0.00 0.00 60 1011.4
20260506125905 55 347 9.0 16.0 0.00 0.00 0.00 60 1011.3
20260506125404 55 341 10.0 18.0 0.00 0.00 0.00 60 1011.2
20260506124904 55 321 8.0 14.0 0.00 0.00 0.00 60 1011.0
20260506123905 55 328 8.0 14.0 0.00 0.00 0.00 60 1010.8
20260506123404 55 334 8.0 14.0 0.00 0.00 0.00 59 1010.7
20260506122904 55 337 8.0 16.0 0.00 0.00 0.00 59 1010.5
20260506122405 56 335 6.0 17.0 0.00 0.00 0.00 59 1010.6
20260506121904 56 346 9.0 15.0 0.00 0.00 0.00 59 1010.6
20260506121404 56 336 6.0 12.0 0.00 0.00 0.00 58 1010.8
20260506120904 56 346 8.0 13.0 0.00 0.00 0.00 59 1010.6
20260506120404 56 322 8.0 17.0 0.00 0.00 0.00 58 1010.6
20260506115904 56 327 8.0 15.0 0.00 0.00 0.00 58 1010.5
20260506115404 56 325 9.0 15.0 0.00 0.00 0.00 58 1010.3
20260506114404 56 344 8.0 15.0 0.00 0.00 0.00 57 1010.1
20260506113904 57 345 7.0 14.0 0.00 0.00 0.00 58 1009.8
20260506113404 57 342 6.0 16.0 0.00 0.00 0.00 58 1009.8
20260506112904 57 336 9.0 17.0 0.00 0.00 0.00 58 1009.9
20260506112404 57 325 7.0 16.0 0.00 0.00 0.00 58 1009.9
20260506111904 57 322 5.0 12.0 0.00 0.00 0.00 57 1009.5
20260506111404 57 331 8.0 15.0 0.00 0.00 0.00 57 1009.6
20260506110904 57 325 7.0 14.0 0.00 0.00 0.00 56 1009.6
20260506110404 58 337 10.0 15.0 0.00 0.00 0.00 56 1009.3
20260506105904 58 322 6.0 12.0 0.00 0.00 0.00 56 1009.3
20260506104904 58 343 5.0 12.0 0.00 0.00 0.00 56 1009.0
20260506104404 58 344 7.0 12.0 0.00 0.00 0.00 56 1009.0
20260506103404 58 329 9.0 16.0 0.00 0.00 0.00 56 1008.7
20260506102904 58 331 5.0 13.0 0.00 0.00 0.00 56 1008.7
20260506102404 58 334 5.0 12.0 0.00 0.00 0.00 56 1008.5
20260506101904 58 315 4.0 12.0 0.00 0.00 0.00 56 1008.4
20260506101404 58 319 6.0 13.0 0.00 0.00 0.00 56 1008.3
20260506100905 58 339 6.0 12.0 0.00 0.00 0.00 56 1008.3
20260506100404 58 335 7.0 12.0 0.00 0.00 0.00 57 1008.2
20260506095904 58 339 6.0 12.0 0.00 0.00 0.00 57 1008.3
20260506094904 58 9 5.0 12.0 0.00 0.00 0.00 57 1008.2
20260506094404 58 320 3.0 9.0 0.00 0.00 0.00 57 1008.2
20260506093905 58 354 5.0 9.0 0.00 0.00 0.00 57 1008.2
20260506093404 58 337 6.0 13.0 0.00 0.00 0.00 57 1008.2
20260506092904 58 341 6.0 12.0 0.00 0.00 0.00 56 1008.2
20260506092404 58 327 6.0 12.0 0.00 0.00 0.00 56 1008.1
20260506091904 58 343 5.0 9.0 0.00 0.00 0.00 57 1008.1
20260506090904 58 336 3.0 8.0 0.00 0.00 0.00 57 1008.0
20260506090404 58 359 5.0 8.0 0.00 0.00 0.00 57 1007.9
20260506085904 58 354 4.0 9.0 0.00 0.00 0.00 57 1007.9
20260506085404 59 346 6.0 10.0 0.00 0.00 0.00 57 1007.9
20260506084904 59 2 3.0 6.0 0.00 0.00 0.00 57 1007.8
20260506084404 59 347 5.0 9.0 0.00 0.00 0.00 57 1007.7
20260506083904 59 35 3.0 9.0 0.00 0.00 0.00 57 1007.5
20260506082904 59 47 3.0 8.0 0.00 0.00 0.00 57 1007.4
20260506082404 59 20 3.0 10.0 0.00 0.00 0.00 57 1007.4
20260506081905 59 346 4.0 10.0 0.00 0.00 0.00 57 1007.3
20260506081404 59 342 5.0 10.0 0.00 0.00 0.00 57 1007.5
20260506080904 59 349 5.0 10.0 0.00 0.00 0.00 57 1007.4
20260506080404 59 34 3.0 8.0 0.00 0.00 0.00 57 1007.3
20260506073404 60 341 7.0 14.0 0.00 0.00 0.00 57 1007.6
20260506072904 60 350 5.0 13.0 0.00 0.00 0.00 57 1007.6
20260506072404 61 346 8.0 14.0 0.00 0.00 0.00 57 1007.6
20260506071904 61 350 6.0 13.0 0.00 0.00 0.00 57 1007.7
20260506071404 62 342 5.0 10.0 0.00 0.00 0.00 59 1007.5
20260506070904 62 341 6.0 10.0 0.00 0.00 0.00 58 1007.4
20260506070405 62 350 5.0 12.0 0.00 0.00 0.00 58 1007.5
20260506062404 63 343 7.0 14.0 0.00 0.00 0.00 56 1007.4
20260506061904 64 331 6.0 13.0 0.00 0.00 0.00 57 1007.3
20260506061404 64 6 6.0 10.0 0.00 0.00 0.00 56 1007.4
20260506060904 64 354 7.0 12.0 0.00 0.00 0.00 56 1007.3
20260506060404 64 351 8.0 12.0 0.00 0.00 0.00 56 1007.3
20260506051404 67 343 7.0 13.0 0.00 0.00 0.00 56 1007.1
20260506050904 67 344 9.0 14.0 0.00 0.00 0.00 56 1006.9
20260506050404 67 346 8.0 16.0 0.00 0.00 0.00 55 1007.0
20260506044904 69 334 9.0 15.0 0.00 0.00 0.00 56 1006.8
20260506044404 69 344 6.0 13.0 0.00 0.00 0.00 56 1006.7
20260506043904 69 348 6.0 12.0 0.00 0.00 0.00 56 1006.6
20260506043404 69 350 7.0 13.0 0.00 0.00 0.00 56 1006.6
20260506042904 70 339 7.0 13.0 0.00 0.00 0.00 56 1006.5
20260506042404 70 337 8.0 15.0 0.00 0.00 0.00 55 1006.4
20260506041904 70 343 8.0 14.0 0.00 0.00 0.00 55 1006.3
20260506040904 71 322 6.0 13.0 0.00 0.00 0.00 55 1006.3
20260506040404 71 315 10.0 15.0 0.00 0.00 0.00 55 1006.3
20260506035404 71 329 5.0 12.0 0.00 0.00 0.00 55 1006.2
20260506034904 71 356 6.0 15.0 0.00 0.00 0.00 54 1006.0
20260506034404 72 347 9.0 13.0 0.00 0.00 0.00 55 1006.0
20260506033904 72 344 6.0 10.0 0.00 0.00 0.00 55 1005.7
20260506033404 72 334 5.0 10.0 0.00 0.00 0.00 54 1005.9
20260506032904 73 330 7.0 14.0 0.00 0.00 0.00 54 1005.9
20260506032404 73 310 6.0 18.0 0.00 0.00 0.00 54 1005.9
20260506031904 74 329 9.0 17.0 0.00 0.00 0.00 54 1005.7
20260506031404 74 324 7.0 16.0 0.00 0.00 0.00 54 1005.6
20260506030904 75 320 9.0 17.0 0.00 0.00 0.00 54 1005.5
20260506030404 75 313 5.0 13.0 0.00 0.00 0.00 53 1005.3
20260506025904 75 322 7.0 12.0 0.00 0.00 0.00 53 1005.0
20260506025404 75 322 6.0 13.0 0.00 0.00 0.00 53 1005.0
20260506024904 75 292 6.0 10.0 0.00 0.00 0.00 53 1005.0
20260506024405 75 297 4.0 8.0 0.00 0.00 0.00 53 1004.5
20260506023904 75 329 5.0 8.0 0.00 0.00 0.00 52 1004.3
20260506022904 76 336 5.0 10.0 0.00 0.00 0.00 52 1004.1
20260506022403 76 289 5.0 12.0 0.00 0.00 0.00 51 1004.1
20260506021904 76 338 7.0 13.0 0.00 0.00 0.00 51 1003.9
20260506021404 77 322 6.0 12.0 0.00 0.00 0.00 50 1004.0
20260506020904 78 312 8.0 14.0 0.00 0.00 0.00 50 1003.9
20260506020404 79 311 5.0 12.0 0.00 0.00 0.00 49 1003.5
20260506015907 80 298 6.0 9.0 0.00 0.00 0.00 50 1003.9
20260506015404 81 276 5.0 9.0 0.00 0.00 0.00 55 1003.7
20260506014404 81 223 1.0 3.0 0.00 0.00 0.00 55 1003.5
20260506013904 81 223 2.0 3.0 0.00 0.00 0.00 55 1003.6
20260506013405 81 224 2.0 3.0 0.00 0.00 0.00 55 1003.6
20260506012405 81 195 2.0 5.0 0.00 0.00 0.00 54 1003.5
20260506011904 81 190 2.0 5.0 0.00 0.00 0.00 54 1003.2
20260506011404 81 161 4.0 6.0 0.00 0.00 0.00 54 1002.8
20260506010403 81 168 7.0 12.0 0.00 0.00 0.00 54 1003.0
20260506005904 81 175 6.0 12.0 0.00 0.00 0.00 54 1003.1
20260506005404 81 172 6.0 10.0 0.00 0.00 0.00 54 1003.3
20260506004904 81 170 6.0 16.0 0.00 0.00 0.00 54 1003.1
20260506004404 82 178 5.0 10.0 0.00 0.00 0.00 54 1003.2
20260506003904 82 158 6.0 12.0 0.00 0.00 0.00 53 1003.0
20260506003404 82 158 6.0 15.0 0.00 0.00 0.00 53 1002.7
20260506002904 82 144 6.0 14.0 0.00 0.00 0.00 53 1002.5
20260506001904 82 156 7.0 15.0 0.00 0.00 0.00 53 1002.7
20260506001404 83 171 10.0 16.0 0.00 0.00 0.00 52 1002.6
20260506000904 83 145 9.0 14.0 0.00 0.00 0.00 52 1002.1
20260506000405 83 159 9.0 15.0 0.00 0.00 0.00 51 1002.4
20260505235904 84 139 9.0 15.0 0.00 0.00 0.00 51 1002.1
20260505235404 84 142 7.0 14.0 0.00 0.00 0.00 51 1002.0
20260505234904 84 148 9.0 14.0 0.00 0.00 0.00 51 1002.1
20260505234404 85 147 7.0 15.0 0.00 0.00 0.00 50 1002.3
20260505233904 85 141 9.0 15.0 0.00 0.00 0.00 50 1002.4
20260505233405 85 141 9.0 13.0 0.00 0.00 0.00 50 1002.1
20260505232404 86 159 9.0 13.0 0.00 0.00 0.00 50 1002.1
20260505231904 86 155 10.0 15.0 0.00 0.00 0.00 49 1002.3
20260505230904 87 159 9.0 13.0 0.00 0.00 0.00 49 1002.0
20260505230404 87 143 9.0 17.0 0.00 0.00 0.00 49 1001.9
20260505225404 87 150 11.0 17.0 0.00 0.00 0.00 49 1001.9
20260505224905 87 145 10.0 16.0 0.00 0.00 0.00 49 1001.8
20260505224404 87 145 9.0 14.0 0.00 0.00 0.00 49 1001.7
20260505223904 87 154 9.0 15.0 0.00 0.00 0.00 48 1001.6
20260505223404 87 158 8.0 16.0 0.00 0.00 0.00 48 1001.7
20260505222904 87 151 12.0 20.0 0.00 0.00 0.00 48 1001.7
20260505220904 87 116 9.0 16.0 0.00 0.00 0.00 48 1001.7
20260505220404 87 144 9.0 17.0 0.00 0.00 0.00 48 1001.8
20260505215904 87 160 8.0 17.0 0.00 0.00 0.00 48 1001.8
20260505215404 87 163 9.0 17.0 0.00 0.00 0.00 48 1001.8
20260505214908 87 160 10.0 17.0 0.00 0.00 0.00 49 1001.8
20260505214405 87 147 10.0 17.0 0.00 0.00 0.00 48 1001.8
20260505213904 87 170 11.0 18.0 0.00 0.00 0.00 49 1001.8
20260505213404 87 170 10.0 17.0 0.00 0.00 0.00 49 1002.0
20260505212404 87 146 10.0 17.0 0.00 0.00 0.00 48 1002.0
20260505211905 87 168 9.0 20.0 0.00 0.00 0.00 49 1002.1
20260505211404 87 166 9.0 16.0 0.00 0.00 0.00 49 1002.0
20260505210904 87 140 11.0 16.0 0.00 0.00 0.00 48 1002.1
20260505210404 87 183 10.0 15.0 0.00 0.00 0.00 48 1002.1
20260505205905 87 179 10.0 18.0 0.00 0.00 0.00 49 1002.3
20260505204904 87 176 7.0 16.0 0.00 0.00 0.00 49 1002.4
20260505204404 87 159 9.0 16.0 0.00 0.00 0.00 48 1002.4
20260505203904 87 190 10.0 18.0 0.00 0.00 0.00 49 1002.5
20260505203405 87 146 14.0 21.0 0.00 0.00 0.00 49 1002.6
20260505202904 86 161 7.0 17.0 0.00 0.00 0.00 49 1002.6
20260505202404 86 171 12.0 18.0 0.00 0.00 0.00 49 1002.7
20260505201907 86 187 10.0 17.0 0.00 0.00 0.00 50 1002.7
20260505201404 85 145 12.0 20.0 0.00 0.00 0.00 49 1002.6
20260505200904 85 164 10.0 16.0 0.00 0.00 0.00 50 1002.8
20260505195404 85 169 13.0 20.0 0.00 0.00 0.00 51 1002.8
20260505194904 85 170 10.0 18.0 0.00 0.00 0.00 50 1002.7
20260505194405 84 169 11.0 21.0 0.00 0.00 0.00 50 1002.9
20260505193903 84 169 8.0 20.0 0.00 0.00 0.00 51 1002.8
20260505193404 84 164 13.0 22.0 0.00 0.00 0.00 50 1002.9
20260505192904 84 180 10.0 20.0 0.00 0.00 0.00 50 1002.9
20260505191907 83 149 13.0 18.0 0.00 0.00 0.00 52 1002.9
20260505191404 83 151 10.0 20.0 0.00 0.00 0.00 51 1002.8
20260505190404 83 168 11.0 20.0 0.00 0.00 0.00 50 1003.2
20260505185904 83 181 12.0 20.0 0.00 0.00 0.00 51 1003.1
20260505185404 82 166 12.0 17.0 0.00 0.00 0.00 51 1003.2
20260505184904 82 157 12.0 18.0 0.00 0.00 0.00 52 1003.2
20260505184404 82 186 10.0 21.0 0.00 0.00 0.00 51 1003.3
20260505183904 82 150 12.0 20.0 0.00 0.00 0.00 51 1003.2
20260505182404 82 173 12.0 21.0 0.00 0.00 0.00 51 1003.4
20260505181904 82 157 10.0 18.0 0.00 0.00 0.00 52 1003.5
20260505181404 82 169 13.0 18.0 0.00 0.00 0.00 52 1003.4
20260505180904 82 182 11.0 20.0 0.00 0.00 0.00 52 1003.3
20260505180404 82 193 12.0 21.0 0.00 0.00 0.00 51 1003.4
20260505175904 82 186 12.0 21.0 0.00 0.00 0.00 52 1003.5
20260505174905 82 176 14.0 20.0 0.00 0.00 0.00 52 1003.5
20260505173404 81 166 14.0 21.0 0.00 0.00 0.00 52 1003.4
20260505172904 81 174 13.0 22.0 0.00 0.00 0.00 52 1003.5
20260505172404 81 169 14.0 20.0 0.00 0.00 0.00 52 1003.4
20260505171904 81 178 12.0 22.0 0.00 0.00 0.00 51 1003.5
20260505171404 81 163 15.0 25.0 0.00 0.00 0.00 52 1003.5
20260505170404 80 187 11.0 23.0 0.00 0.00 0.00 53 1003.6
20260505165903 80 159 13.0 22.0 0.00 0.00 0.00 52 1003.5
20260505165405 80 178 12.0 18.0 0.00 0.00 0.00 53 1003.5
20260505164904 80 178 11.0 20.0 0.00 0.00 0.00 53 1003.7
20260505164404 80 179 14.0 26.0 0.00 0.00 0.00 52 1003.7
20260505162904 79 186 14.0 21.0 0.00 0.00 0.00 53 1003.5
20260505162404 79 179 15.0 22.0 0.00 0.00 0.00 53 1003.4
20260505161403 78 165 14.0 23.0 0.00 0.00 0.00 54 1003.4
20260505160904 78 179 10.0 25.0 0.00 0.00 0.00 55 1003.3
20260505160404 77 175 13.0 21.0 0.00 0.00 0.00 55 1003.4
20260505152904 76 167 14.0 22.0 0.00 0.00 0.00 57 1003.6
20260505152403 76 178 12.0 25.0 0.00 0.00 0.00 57 1003.6
20260505151904 76 184 10.0 23.0 0.00 0.00 0.00 57 1003.6
20260505150904 75 174 10.0 17.0 0.00 0.00 0.00 57 1003.5
20260505150403 75 183 14.0 21.0 0.00 0.00 0.00 57 1003.4
20260505140403 73 164 10.0 20.0 0.00 0.00 0.00 60 1003.4